Hourly Data Report for October 02, 2017

All times are specified in Local Standard Time (LST). Add 1 hour to adjust for Daylight Saving Time where and when it is observed.

VICTORIA GONZALES CS
BRITISH COLUMBIA

48°24'47.896" N
123°19'29.192" W
61.00 m
1018611
71200
WLM

Download Data

Hourly Data (October 2017)
Hourly Data Report for October 2, 2017
Temp Definition
°C
Dew Point Temp Definition
°C
Rel Hum Definition
%
Wind Dir Definition
10's deg

Wind Spd Definition
km/h
Visibility Definition
km
Stn Press Definition
kPa
Hmdx Definition


Wind Chill Definition


Weather Definition


TIME
00:00 9.3 7.9 91 31 8   101.21     LegendNANA
01:00 9.7 7.6 87 5 7   101.21     LegendNANA
02:00 9.7 6.4 80 1 12   101.20     LegendNANA
03:00 10.5 6.0 74 34 12   101.21     LegendNANA
04:00 9.8 6.1 78 35 14   101.22     LegendNANA
05:00 9.9 6.6 80 35 11   101.25     LegendNANA
06:00 10.1 6.8 80 35 11   101.26     LegendNANA
07:00 10.5 7.1 79 34 8   101.28     LegendNANA
08:00 11.8 7.0 72 1 10   101.29     LegendNANA
09:00 12.9 7.0 67 1 24   101.30     LegendNANA
10:00 14.1 7.9 66 1 20   101.33     LegendNANA
11:00 15.8 7.1 56 36 18   101.36     LegendNANA
12:00 16.9 5.4 47 1 10   101.37     LegendNANA
13:00 16.4 6.3 51 24 4   101.39     LegendNANA
14:00 15.1 7.2 59 21 6   101.38     LegendNANA
15:00 14.7 7.1 60 21 7   101.40     LegendNANA
16:00 14.5 7.2 61 25 7   101.41     LegendNANA
17:00 14.1 6.4 60 26 9   101.44     LegendNANA
18:00 13.3 5.5 59 26 12   101.46     LegendNANA
19:00 12.9 5.1 59 28 10   101.51     LegendNANA
20:00 12.4 4.1 57 29 8   101.57     LegendNANA
21:00 12.8 3.6 54 27 8   101.60     LegendNANA
22:00 13.0 2.3 48 31 6   101.64     LegendNANA
23:00 13.0 1.4 45 32 8   101.65     LegendNANA

Notes on Data Quality.

Legend

  • E = Estimated
  • M = Missing
  • NA = Not Available
  • ‡ = Partner data that is not subject to review by the National Climate Archives
Date modified: